Location: Caltech
(34.1382°N, 118.1253°W)
Time: 15:30:57
(UTC-07:00)

Cosmos 2333 Rocket - Visible Passes

Search period start: 01 August 2014 00:00
Search period end: 11 August 2014 00:00
Orbit: 838 x 864 km, 70.9° (Epoch: 31 July)

Date Brightness Start Highest point End Pass type
(mag) Time Alt. Az. Time Alt. Az. Time Alt. Az.
01 Aug 3.8 21:33:58 10° N 21:38:09 20° ENE 21:39:32 19° ENE visible
01 Aug 3.1 23:17:08 10° NNW 23:21:32 44° WNW 23:21:32 44° WNW visible
02 Aug 3.8 21:21:40 10° N 21:25:51 20° ENE 21:27:36 18° E visible
02 Aug 2.9 23:04:50 10° NNW 23:09:36 47° W 23:09:36 47° W visible
03 Aug 3.8 21:09:22 10° N 21:13:34 20° ENE 21:15:42 17° E visible
03 Aug 2.8 22:52:32 10° NNW 22:57:43 50° W 22:57:43 50° W visible
04 Aug 3.8 20:57:05 10° N 21:01:16 20° ENE 21:03:51 15° E visible
04 Aug 2.7 22:40:15 10° NNW 22:45:48 51° WSW 22:45:52 51° WSW visible
05 Aug 3.8 20:44:47 10° N 20:48:58 20° ENE 20:52:03 14° E visible
05 Aug 2.7 22:27:57 10° NNW 22:33:30 51° WSW 22:34:04 49° SW visible
06 Aug 3.7 20:32:30 10° N 20:36:41 20° ENE 20:40:18 12° E visible
06 Aug 2.8 22:15:39 10° NNW 22:21:13 51° WSW 22:22:19 45° SW visible
07 Aug 3.7 20:20:12 10° N 20:24:23 20° ENE 20:28:31 10° ESE visible
07 Aug 2.8 22:03:22 10° NNW 22:08:55 51° WSW 22:10:37 39° SSW visible
08 Aug 3.7 20:07:55 10° N 20:12:05 20° ENE 20:16:14 10° ESE visible
08 Aug 2.8 21:51:04 10° NNW 21:56:38 51° WSW 21:58:59 32° SSW visible
09 Aug 2.9 21:38:47 10° NNW 21:44:20 51° WSW 21:47:25 25° S visible
10 Aug 2.9 21:26:29 10° NNW 21:32:03 51° WSW 21:35:55 19° S visible
